DECAYED
Showing default

LEMUR 2 GOOD-VIBES, 58263 (Decayed)

Orbit data source: Space-Track

LEMUR 2 GOOD-VIBES, 58263 was an American payload satellite in LEO that was launched on Sat, 11 Nov 2023 UTC via an FALCON 9 launch vehicle from the Air Force Western Test Range (AFWTR). Payload-class satellites include a variety of spacecraft equipped with specific instruments for various scientific and technological missions. These include communications satellites like Starlink; space stations such as the ISS; scientific satellites like the Hubble; Earth observation satellites from companies like Planet Labs, Umbra, and HawkEye 360; GPS; miniature CubeSats for education and research; and military/defense satellites.

Not visible in the next 10 days
Identifier
58263, 2023-174H
Orbit
Decayed
Country
Flag of USUS
Related business
Manufacturer
Spire/Glasgow
Mission
Decayed Commercial Com/MetRO
Bus & Motor
CUBESAT 6U, Unknown motor
Mass
10 kg wet, ~10 kg dry
Launch date (UTC)
2023-11-11 (3 years ago)
Launch vehicle
FALCON 9
Launch site
Air Force Western Test Range (AFWTR)
Object type
Payload
Rocket body
Debris
Shape & HBR
Box, 0.2 m
Radar Cross Section
0.080 m², Medium (>0.1 m² and < 1m²)

Expand to show TLE details & history
Last TLE update: 1 year ago

TLE from 1 year ago
0 LEMUR 2 GOOD-VIBES
1 58263U 23174H   25146.37121936  .14329262  25741-5  30732-3 0  9992
2 58263  97.3572 234.3138 0019003 284.4741  75.4452 16.45008202 86678
Epoch: 2025-05-26T08:54Z
TLE epoch observation values (Epoch: 2025-05-26T08:54:33.352Z)
Latitude
-0.0001°
Longitude
-143.50948°
Altitude
152.676 km
Speed
7.816 km/s
True Right ascension
15h 37m 15s
True Declination
0° 00' 00"
Sunlit
Object was in full shadow at epoch
Visualization orbit readout
Latitude
Unknown
Longitude
Unknown
Altitude
Unknown
Speed
Unknown
Apparent Right ascension
Unknown
Apparent Declination
Unknown
Sunlit
N/A
Visualization observer readout
Local Sidereal Time
21:10:52
Azimuth
Unknown
Elevation
Unknown
Doppler factor
Unknown
Orbital elements
Apogee altitude
161.717 km
Perigee altitude
136.909 km
Semi-major axis
6,527.45 km
Eccentricity
0.0019
Inclination
97.3572°
RAAN
234.3138°
Arg. of periapsis
284.4741°
True anomaly
75.6561°
Mean anomaly
75.4452°
Eccentric anomaly
75.55064°
Mean motion
4.11555 °/min
Orbital period
87.47 mins
BSTAR
0.00030732
Loading maneuver chart data...
Computing Atmospheric mass density...

Documentation

Showing up to 5 results
|